Find Starlink 35516

NORAD ID: 65918 Int'l Des: 2025-225 Owner: SPXS Country: US Constellation: starlink operational
LEOCIRCULAR

現在のビュー

3D地球を読み込み中...

About Starlink 35516

Starlink 35516 (NORAD 65918) is a starlink constellation satellite (v2 mini) launched Oct 8, 2025 by SPXS of US. It operates in LEO, CIRCULAR orbit with a mass of 575.00 kg.

Starlink 35516について

説明を読み込み中...

次回通過

Passes for default location (London). Set your location on the main map for personalized predictions.

高度履歴

Loading altitude history...

軌道要素

1 65918U 25225J 26195.55596492 .00007525 00000-0 26604-3 0 9993
2 65918 53.1598 296.2744 0000905 81.4306 278.6797 15.30186266 43834
Epoch: Jul 14, 2026 • Age: 2 hours

現在のステータス

高度 480.0 km
遠地点 / 近地点 N/A
速度 7.63 km/s
衛星直下点 47.41°N, 101.84°W
打ち上げ日 Oct 8, 2025
運用期間 0.7 years
タイプ internet

技術仕様

分類 Payload
質量 575.00 kg
乾燥質量 530.00 kg
総質量 575.00 kg
長さ 0.30 m
直径 4.10 m
スパン 29.00 m
形状 Box + pan
製造者 SPXS
バスタイプ Starlink V2MO
フェーズステータス In Orbit
所有者/国 SPXS/US

Most Searched